New Orleans Lakefront, LA

9:57 PM CDT on April 24, 2017 (GMT -0500)
Lakefront

Weather History for KNEW - April, 2013

Change the Weather History Date:

Thursday, April 25, 2013

  Actual Average Record
Temperature  
Mean Temperature 65 °F 72 °F  
Max Temperature 73 °F 80 °F 88 °F (1999)
Min Temperature 57 °F 63 °F 40 °F (1968)
Degree Days  
Heating Degree Days 0 0  
Month to date heating degree days 32 32  
Since 1 July heating degree days 1130 1277  
Cooling Degree Days 0 7  
Month to date cooling degree days 100 120  
Year to date cooling degree days 168 220  
Growing Degree Days 14 (Base 50)    
Moisture  
Dew Point 55 °F    
Average Humidity 73    
Maximum Humidity 93    
Minimum Humidity 52    
Precipitation  
Precipitation T in 0.16 in 7.67 in (2004)
Month to date precipitation 7.92 3.80  
Year to date precipitation 22.80 18.80  
Snow  
Snow 0.00 in - - ()
Month to date snowfall 0.0  
Since 1 July snowfall 0.0  
Snow Depth 0.00 in    
Sea Level Pressure  
Sea Level Pressure 30.24 in    
Wind  
Wind Speed 11 mph (NNE)    
Max Wind Speed 25 mph    
Max Gust Speed -    
Visibility 9 miles    
Events      
T = Trace of Precipitation, MM = Missing Value Source: NWS Daily Summary

Daily Weather History Graph

Daily Weather History Graph

Search for Another Location

Airport or City:

Trip Planner

Search our weather history database for the weather conditions in past years. The results will help you decide how hot, cold, wet, or windy it might be!

Date:

Astronomy

Apr. 25, 2013 Rise Set
Actual Time 6:22 AM CDT 7:33 PM CDT
Civil Twilight 5:57 AM CDT 7:58 PM CDT
Nautical Twilight 5:27 AM CDT 8:28 PM CDT
Astronomical Twilight 4:57 AM CDT 8:59 PM CDT
Moon 7:44 PM CDT 6:05 AM CDT
Length of Visible Light 14h 01m
Length of Day
13h 11m
Full, 100% of the Moon is Illuminated
Apr 25
Full
Apr 25
Full
May 2
Last Quarter
May 9
New
May 17
First Quarter

Hourly Weather History & Observations

Time (CDT) Temp. Dew Point Humidity Pressure Visibility Wind Dir Wind Speed Gust Speed Precip Events Conditions
12:53 AM 60.1 °F 55.9 °F 86% 30.17 in 3.0 mi North 13.8 mph - N/A   Overcast
1:53 AM 59.0 °F 55.9 °F 90% 30.18 in 4.0 mi North 16.1 mph - 0.01 in   Overcast
2:53 AM 59.0 °F 55.0 °F 87% 30.17 in 10.0 mi North 17.3 mph - N/A   Overcast
3:53 AM 59.0 °F 55.0 °F 87% 30.17 in 10.0 mi NNE 18.4 mph - N/A   Overcast
4:53 AM 59.0 °F 55.0 °F 87% 30.18 in 10.0 mi NNE 18.4 mph - N/A   Overcast
5:53 AM 59.0 °F 55.0 °F 87% 30.19 in 8.0 mi NNE 17.3 mph - N/A   Overcast
6:50 AM 59.0 °F 53.6 °F 82% 30.23 in 10.0 mi NNE 16.1 mph - N/A   Overcast
6:53 AM 59.0 °F 54.0 °F 83% 30.22 in 10.0 mi NNE 16.1 mph - N/A   Overcast
7:46 AM 57.2 °F 53.6 °F 88% 30.26 in 10.0 mi NNE 10.4 mph - N/A   Overcast
7:53 AM 57.9 °F 54.0 °F 87% 30.24 in 7.0 mi NNE 13.8 mph - N/A   Overcast
8:53 AM 59.0 °F 53.1 °F 81% 30.25 in 10.0 mi NE 15.0 mph - N/A   Overcast
9:46 AM 60.8 °F 53.6 °F 77% 30.29 in 10.0 mi NNE 13.8 mph - N/A   Overcast
9:53 AM 61.0 °F 54.0 °F 78% 30.27 in 10.0 mi NNE 12.7 mph - N/A   Overcast
10:53 AM 60.1 °F 53.1 °F 78% 30.31 in 10.0 mi NE 5.8 mph - N/A   Overcast
11:41 AM 62.6 °F 55.4 °F 77% 30.32 in 10.0 mi NNE 8.1 mph - N/A   Overcast
11:53 AM 63.0 °F 55.0 °F 75% 30.30 in 10.0 mi North 9.2 mph - N/A   Mostly Cloudy
12:53 PM 64.9 °F 55.9 °F 73% 30.29 in 10.0 mi North 5.8 mph - N/A   Overcast
1:53 PM 66.9 °F 57.0 °F 70% 30.28 in 10.0 mi NW 8.1 mph - N/A   Overcast
2:53 PM 68.0 °F 57.9 °F 70% 30.25 in 10.0 mi NW 5.8 mph - N/A   Overcast
3:25 PM 69.8 °F 57.2 °F 64% 30.26 in 10.0 mi NW 6.9 mph - N/A   Scattered Clouds
3:53 PM 70.0 °F 59.0 °F 68% 30.22 in 10.0 mi NW 4.6 mph - N/A   Clear
4:53 PM 71.1 °F 59.0 °F 66% 30.22 in 10.0 mi WNW 3.5 mph - N/A   Scattered Clouds
5:53 PM 71.1 °F 59.0 °F 66% 30.21 in 10.0 mi West 3.5 mph - N/A   Clear
6:53 PM 72.0 °F 59.0 °F 64% 30.21 in 10.0 mi Calm Calm - N/A   Clear
7:53 PM 71.1 °F 59.0 °F 66% 30.22 in 10.0 mi East 3.5 mph - N/A   Clear
8:53 PM 70.0 °F 57.9 °F 65% 30.24 in 10.0 mi NE 16.1 mph - N/A   Partly Cloudy
9:53 PM 69.1 °F 52.0 °F 54% 30.26 in 10.0 mi NE 16.1 mph - N/A   Clear
10:53 PM 68.0 °F 50.0 °F 52% 30.25 in 10.0 mi ENE 16.1 mph - N/A   Clear
11:53 PM 66.9 °F 50.0 °F 54% 30.25 in 10.0 mi ENE 15.0 mph - N/A   Clear